This is the latest recevied weather packets stored in our database for station/object SP9MUF-14. If no packets are shown the sender has not sent any weather packets the latest 10 day(s).
| Time | Temp. | Humidity | Pressure | Rain* | Wind** | Luminosity | Snow |
|---|---|---|---|---|---|---|---|
| 1777557826 | 15.56° C | 24% | 1027.2 hPa | 0 mm | - | 385 W/m² | - |
| 1777557522 | 15° C | 26% | 1027.2 hPa | 0 mm | - | 401 W/m² | - |
| 1777557218 | 13.89° C | 26% | 1027.3 hPa | 0 mm | - | 412 W/m² | - |
| 1777556915 | 13.89° C | 25% | 1027.5 hPa | 0 mm | - | 422 W/m² | - |
| 1777556610 | 15° C | 24% | 1027.5 hPa | 0 mm | - | 436 W/m² | - |
| 1777556306 | 15° C | 26% | 1027.4 hPa | 0 mm | - | 426 W/m² | - |
| 1777556003 | 15° C | 25% | 1027.4 hPa | 0 mm | - | 428 W/m² | - |
| 1777555698 | 15° C | 25% | 1027.5 hPa | 0 mm | - | 482 W/m² | - |
| 1777555395 | 13.89° C | 25% | 1027.7 hPa | 0 mm | - | 485 W/m² | - |
| 1777555090 | 12.78° C | 28% | 1027.8 hPa | 0 mm | - | 482 W/m² | - |
| 1777554786 | 12.78° C | 27% | 1027.8 hPa | 0 mm | - | 511 W/m² | - |
| 1777554483 | 13.89° C | 27% | 1027.9 hPa | 0 mm | - | 520 W/m² | - |
| 1777554178 | 13.89° C | 27% | 1027.8 hPa | 0 mm | - | 537 W/m² | - |
| 1777553874 | 13.89° C | 26% | 1028 hPa | 0 mm | - | 548 W/m² | - |
| 1777553570 | 12.78° C | 28% | 1028.1 hPa | 0 mm | - | 558 W/m² | - |
| 1777553266 | 13.89° C | 27% | 1028.2 hPa | 0 mm | - | 568 W/m² | - |
| 1777552962 | 13.89° C | 30% | 1028.2 hPa | 0 mm | - | 575 W/m² | - |
| 1777552658 | 12.78° C | 27% | 1028.4 hPa | 0 mm | - | 585 W/m² | - |
| 1777552354 | 12.78° C | 29% | 1028.5 hPa | 0 mm | - | 588 W/m² | - |
| 1777552050 | 12.78° C | 28% | 1028.7 hPa | 0 mm | - | 562 W/m² | - |
| 1777551747 | 12.78° C | 30% | 1028.7 hPa | 0 mm | - | 609 W/m² | - |
| 1777551442 | 12.78° C | 28% | 1028.8 hPa | 0 mm | - | 628 W/m² | - |
| 1777551138 | 11.67° C | 29% | 1029.1 hPa | 0 mm | - | 638 W/m² | - |
| 1777550226 | 11.67° C | 31% | 1029.3 hPa | 0 mm | - | 697 W/m² | - |
| 1777549922 | 11.67° C | 31% | 1029.3 hPa | 0 mm | - | 683 W/m² | - |
* Rain latest hour (hover to see other rain measurements)
** Current wind speed in m/s (hover to see current wind gust speed)